GLOBALSTAR M078 (39076 NORAD) Tracking and Keplerian Element Data

This shows tracking and keplerian element data for the satellite.

Feedback or suggestion? Click here.




ElementValue
Catalog39076
NameGLOBALSTAR M078
Epoch Orbit55300
Epoch Day34.26276601
Epoch Year2025
RAAN2.9748
Inclination51.9896
Eccentricity5.97E-05
Argument of Perigee236.8755
Mean Anonmoly123.2054
Mean Motion12.62269997
Decay Rate-5.7E-07
L11 39076U 13005E 25034.26276601 -.00000057 00000+0 26260-3 0 9999
L22 39076 51.9896 2.9748 0000597 236.8755 123.2054 12.62269997553005



Live tracking and technical data element details for GLOBALSTAR M078 (NORAD 39076). GLOBALSTAR M078 can be tracked NOW for your location showing map with azimuth and elevation plus other details from your city location.







IsCatalogInMostPopularTable: catalog: 39076, numindb: 563
Update: records affected: 1



GetName: 39076 GLOBALSTAR M078

Hit Count: updated at: Fri, 16 May 2025 10:34:48 GMT